Location: Buckeye Ditch
(40.9104°N, 122.9517°W)
Time: 17:39:02
(UTC+00:00)

SR - Pass Details

Date: 18 May 2025
Orbit: 570 x 855 km, 66.7° (Epoch: 13 June)

Event Time Altitude Azimuth Distance (km) Brightness Sun altitude
Rises 16:46:18 0° 336° (NNW) 3,321 ? 42.3°
Reaches altitude 10° 16:49:04 10° 346° (NNW) 2,345 ? 42.8°
Maximum altitude 16:53:52 32° 50° (NE) 1,248 ? 43.7°
Drops below altitude 10° 16:58:19 10° 114° (ESE) 2,164 ? 44.6°
Sets 17:00:46 0° 124° (SE) 3,028 ? 45.0°
